DW5595 Weather Reports


time (UTC)temp
C
wind
direction
speed
KPH
gust
KPH
rain 1hr
cm
rain 24hr
cm
rain mn
cm
humidity
%
barometer
mb
20260506090021 16 200 1.6 6.4 0.00 0.00 0.00 78 1012.9
20260506084515 15 140 3.2 11.3 0.00 0.00 0.00 79 1012.7
20260506081515 16 133 4.8 14.5 0.00 0.00 0.00 78 1013.1
20260506073021 16 149 0.0 3.2 0.00 0.00 0.00 77 1013.1
20260506071519 16 18 0.0 3.2 0.00 0.00 0.00 76 1013.2
20260506061526 17 205 6.4 17.7 0.00 0.00 0.00 71 1012.4
20260506044512 12 159 0.0 3.2 0.00 0.00 0.00 83 1013.6
20260506043028 12 173 0.0 0.0 0.00 0.00 0.00 82 1013.4
20260506041526 12 173 0.0 0.0 0.00 0.00 0.00 82 1013.5
20260506040023 13 173 0.0 0.0 0.00 0.00 0.00 82 1013.4
20260506034518 13 173 0.0 0.0 0.00 0.00 0.00 82 1013.3
20260506033025 13 181 0.0 0.0 0.00 0.00 0.00 81 1013.5
20260506031532 13 184 0.0 0.0 0.00 0.00 0.00 79 1013.5
20260506024529 14 184 0.0 0.0 0.00 0.00 0.00 1013.6
20260506023028 15 184 0.0 0.0 0.00 0.00 0.00 1013.6
20260506021529 15 184 0.0 0.0 0.00 0.00 0.00 73 1013.6
20260506020022 16 184 0.0 0.0 0.00 0.00 0.00 71 1013.8
20260506014523 16 184 0.0 0.0 0.00 0.00 0.00 65 1013.8
20260506013019 17 184 0.0 0.0 0.00 0.00 0.00 64 1013.5
20260506011527 17 184 0.0 0.0 0.00 0.00 0.00 60 1013.5
20260506010046 18 184 0.0 0.0 0.00 0.00 0.00 55 1013.4
20260506004528 20 184 0.0 0.0 0.00 0.00 0.00 53 1013.3
20260506003024 20 184 0.0 0.0 0.00 0.00 0.00 49 1013.3
20260506001526 21 161 0.0 4.8 0.00 0.00 0.00 47 1013.1
20260506000020 21 167 0.0 3.2 0.00 0.00 0.00 46 1013.2
20260505234519 22 146 0.0 6.4 0.00 0.00 0.00 43 1013.1
20260505231513 23 144 3.2 12.9 0.00 0.00 0.00 42 1012.7
20260505230008 23 148 3.2 16.1 0.00 0.00 0.00 40 1012.9
20260505224522 23 174 1.6 16.1 0.00 0.00 0.00 38 1013.0
20260505223021 23 157 4.8 17.7 0.00 0.00 0.00 39 1013.1
20260505221523 23 175 4.8 17.7 0.00 0.00 0.00 38 1012.9
20260505220025 23 167 4.8 16.1 0.00 0.00 0.00 38 1012.9
20260505214516 24 143 6.4 19.3 0.00 0.00 0.00 37 1013.0
20260505211526 24 128 4.8 22.5 0.00 0.00 0.00 38 1013.3
20260505210025 24 130 4.8 27.4 0.00 0.00 0.00 36 1013.3
20260505204525 24 247 6.4 19.3 0.00 0.00 0.00 36 1013.4
20260505203029 24 145 3.2 16.1 0.00 0.00 0.00 38 1013.7
20260505201519 24 148 4.8 20.9 0.00 0.00 0.00 36 1013.8
20260505200018 24 182 3.2 16.1 0.00 0.00 0.00 38 1014.0
20260505194516 24 94 8.0 20.9 0.00 0.00 0.00 39 1013.9
20260505193028 24 153 8.0 29.0 0.00 0.00 0.00 38 1014.1
20260505191523 24 173 4.8 19.3 0.00 0.00 0.00 39 1014.5
20260505190034 24 174 4.8 17.7 0.00 0.00 0.00 38 1014.9
20260505184523 24 161 9.7 30.6 0.00 0.00 0.00 35 1015.3
20260505183021 24 95 8.0 22.5 0.00 0.00 0.00 38 1015.2
20260505181519 24 144 3.2 17.7 0.00 0.00 0.00 41 1015.4
20260505180016 23 132 4.8 29.0 0.00 0.00 0.00 40 1015.6
20260505174525 23 220 4.8 17.7 0.00 0.00 0.00 41 1015.7
20260505173036 23 164 6.4 22.5 0.00 0.00 0.00 42 1015.7
20260505171538 23 123 3.2 20.9 0.00 0.00 0.00 42 1015.7
20260505170023 23 144 8.0 16.1 0.00 0.00 0.00 41 1015.9
20260505164523 23 162 1.6 17.7 0.00 0.00 0.00 42 1015.9
20260505163020 23 33 1.6 24.1 0.00 0.00 0.00 44 1016.0
20260505161515 22 162 3.2 9.7 0.00 0.00 0.00 48 1016.1
20260505153006 21 231 4.8 17.7 0.00 0.00 0.00 51 1016.7
20260505121514 10 165 0.0 3.2 0.00 0.00 0.00 90 1015.9
20260505120048 9 140 0.0 0.0 0.00 0.00 0.00 90 1015.8
20260505114510 9 140 0.0 0.0 0.00 0.00 0.00 90 1015.8
20260505113017 8 140 0.0 0.0 0.00 0.00 0.00 91 1015.7
20260505111521 7 159 0.0 0.0 0.00 0.00 0.00 91 1015.6
20260505101521 7 163 0.0 0.0 0.00 0.00 0.00 90 1015.8
20260505100026 7 163 0.0 0.0 0.00 0.00 0.00 89 1015.8
20260505094524 7 163 0.0 0.0 0.00 0.00 0.00 88 1015.7
20260505093022 7 163 0.0 0.0 0.00 0.00 0.00 87 1015.6